Location: Aufkirchen
(47.9603°N, 11.3653°E)
Time: 13:55:33
(UTC+01:00)

Transit 2A Rocket - Pass Details

Date: 07 December 2020
Orbit: 592 x 910 km, 66.7° (Epoch: 21 January)

Event Time Altitude Azimuth Distance (km) Brightness Sun altitude
Rises 09:10:48 0° 321° (NW) 3,112 7.5 9.2°
Reaches altitude 10° 09:13:17 10° 316° (NW) 2,138 6.7 9.4°
Maximum altitude 09:17:54 48° 243° (WSW) 845 5.3 9.9°
Drops below altitude 10° 09:22:10 10° 169° (S) 1,974 8.5 10.4°
Sets 09:24:23 0° 164° (SSE) 2,848 9.4 10.6°
